[[{"header":{"parameterUnit":"m.s-1","parameterCategory":1,"la1":30.2991,"la2":30.254,"lo1":-89.0895,"lo2":-89.0444,"dy":0.0017,"dx":0.0017,"nx":28,"ny":28,"refTime":"2024-03-29T03:00:00:Z","depth":0,"parameterNumber":2,"parameterNumberName":"U-component_of_WINDS"},"data":[0,0,0,0,0,0,0,0,0,0,0,0,0,0,0,0,0,0,0,0,0,0,0,0,0,0,0,0,0,0,0,0,0,0,0,0,0,0,0,0,0,0,0,0,0,0,0,0,0,0,0,0,0,0,0,0,0,0,0.5634,0.5634,0,0.5636,0.5636,0.5636,0.5626,0.5626,0.5625,0.5625,0.5628,0.5629,0.5629,0,0,0,0,0,0,0,0,0,0,0,0,0,0.5625,0.5625,0.5634,0.5634,0.5634,0.5636,0.5636,0.5636,0.5626,0.5626,0.5625,0.5625,0.5628,0.5629,0.5629,0,0,0,0,0,0,0,0,0,0,0,0,0,0.5628,0.5625,0.5634,0.5629,0.5629,0.5636,0.5636,0.5636,0.5626,0.5626,0.5625,0.5625,0.5628,0.5629,0.5629,0.5641,0,0,0.5631,0.5631,0,0,0,0,0,0,0,0,0.5628,0.5628,0.563,0.563,0.5629,0.563,0.5634,0.5638,0.5626,0.5627,0.5625,0.5625,0.5629,0.563,0.5631,0.5641,0.5642,0.5631,0.5631,0.5631,0.5632,0,0,0,0,0,0,0,0.5628,0.5628,0.5635,0.563,0.563,0.5628,0.5628,0.5635,0.5631,0.5627,0.5626,0.5627,0.5629,0.5631,0.5631,0.5642,0.5631,0.5631,0.5632,0.5632,0.5665,0.5665,0,0,0,0,0,0,0.5628,0.5628,0.5635,0.5635,0.5627,0.5629,0.5629,0.563,0.5631,0.563,0.5627,0.5626,0.563,0.5631,0.5631,0.5647,0.5631,0.5632,0.5632,0.5664,0.5665,0.5665,0,0,0,0,0,0,0.5628,0.5628,0.5635,0.5631,0.5632,0.5629,0.5631,0.5631,0.5632,0.5631,0.563,0.5629,0.563,0.5631,0.5639,0.5647,0.5632,0.5633,0.5663,0.5664,0.5665,0.5678,0,0,0,0,0,0,0.5627,0.5628,0.5632,0.5632,0.5632,0.5642,0.5632,0.5631,0.5633,0.5632,0.5632,0.5632,0.5629,0.5639,0.564,0.5647,0.5633,0.5663,0.5664,0.5665,0.5677,0.5679,0.5681,0,0,0,0,0,0.5627,0.5635,0.5632,0.5633,0.5637,0.5642,0.5643,0.5639,0.5634,0.5638,0.5637,0.5632,0.5646,0.564,0.5641,0.5649,0.5662,0.5663,0.5665,0.5676,0.5678,0.5681,0,0,0,0,0,0,0.5637,0.5635,0.5632,0.564,0.5641,0.564,0.5646,0.5642,0.5645,0.5644,0.564,0.564,0.565,0.565,0.5643,0.5662,0.5653,0.5655,0.5661,0.5664,0.5666,0.5666,0.5634,0,0,0,0,0,0.564,0.5644,0.5642,0.565,0.5651,0.5648,0.565,0.5648,0.5649,0.565,0.565,0.5652,0.5657,0.566,0.5665,0.5677,0.5678,0.5683,0.5685,0.5687,0.5688,0.5697,0.57,0.5669,0.5669,0.5669,0,0,0.5646,0.5646,0.5648,0.5652,0.5652,0.5658,0.5649,0.5654,0.5658,0.5651,0.5659,0.566,0.5662,0.5673,0.5678,0.5674,0.5697,0.5688,0.569,0.569,0.5698,0.5701,0.5704,0.567,0.567,0.567,0,0,0.5661,0.566,0.5667,0.5669,0.567,0.5669,0.5671,0.5671,0.5671,0.5679,0.5674,0.568,0.5688,0.5691,0.5693,0.5711,0.5707,0.5713,0.5724,0.5732,0.5735,0.5737,0.5745,0.5748,0.5714,0.5714,0.5715,0,0.5668,0.5675,0.5671,0.5678,0.568,0.5674,0.5682,0.5684,0.5687,0.5689,0.5684,0.5696,0.5697,0.5709,0.5714,0.5716,0.5719,0.5713,0.5735,0.5737,0.5739,0.5746,0.5749,0.5715,0.5715,0.5715,0.5715,0,0.5686,0.5691,0.5697,0.57,0.5703,0.571,0.5709,0.5713,0.571,0.571,0.572,0.5721,0.5727,0.573,0.5727,0.5743,0.574,0.5735,0.5727,0.5742,0.575,0.5752,0.5716,0.5716,0.5716,0.5716,0,0,0.5705,0.5707,0.571,0.5712,0.5714,0.5719,0.5727,0.5732,0.5737,0.574,0.5747,0.5755,0.5751,0.5754,0.5752,0.576,0.5776,0.5754,0.5754,0.5759,0.5796,0.58,0.5804,0.5774,0.5774,0.5775,0.5796,0,0.572,0.5733,0.573,0.5743,0.5749,0.5745,0.5752,0.5755,0.5755,0.5762,0.5762,0.5769,0.5762,0.5764,0.5771,0.5773,0.5784,0.5771,0.5782,0.5783,0.5782,0.5807,0.5811,0.5831,0.5799,0.5799,0.58,0,0.5738,0.5743,0.5756,0.576,0.5762,0.5769,0.5775,0.578,0.5785,0.5785,0.5789,0.5787,0.5796,0.5788,0.5802,0.5794,0.5798,0.58,0.5801,0.5802,0.5792,0.581,0.5837,0.5841,0.5804,0.5803,0.5803,0,0.5753,0.5762,0.5772,0.5774,0.5778,0.5783,0.5785,0.5789,0.5793,0.5799,0.5802,0.5809,0.5813,0.5819,0.5819,0.5812,0.5834,0.5825,0.5836,0.5836,0.5841,0.5841,0.587,0.5843,0.5843,0.5843,0.5842,0,0.577,0.5779,0.5778,0.5784,0.5795,0.5793,0.5804,0.5806,0.581,0.5818,0.5814,0.5821,0.5821,0.5829,0.5829,0.5842,0.5844,0.5845,0.5845,0.5846,0.5846,0.5849,0.5848,0.5843,0.5843,0.5843,0.5843,0,0.5787,0.5787,0.5798,0.5801,0.5803,0.581,0.5814,0.5821,0.5822,0.5832,0.5834,0.5836,0.5846,0.5846,0.5857,0.5858,0.5874,0.5872,0.5872,0.5872,0.5884,0.5883,0.5917,0.5922,0.589,0.5891,0.5891,0,0.5798,0.5805,0.581,0.5815,0.5817,0.5825,0.5829,0.5829,0.5834,0.5841,0.5848,0.5857,0.5864,0.588,0.5883,0.5892,0.5891,0.5903,0.5892,0.5894,0.5893,0.5893,0.5895,0.5905,0.5905,0.5905,0.5905,0,0.5819,0.5819,0.5825,0.5833,0.5839,0.5844,0.585,0.5854,0.5855,0.5861,0.5871,0.5877,0.5889,0.5899,0.5908,0.5912,0.591,0.5909,0.5912,0.5913,0.5914,0.5915,0.5879,0.5908,0.5908,0.5907,0.5907,0.5907,0.5834,0.5841,0.5846,0.5854,0.5858,0.5864,0.5871,0.5874,0.5882,0.5891,0.5891,0.5902,0.5909,0.5922,0.5926,0.5936,0.5932,0.5937,0.5938,0.5939,0.5941,0.5912,0.5938,0.5938,0.5937,0.5937,0.5937,0,0.5855,0.5859,0.5866,0.5874,0.5882,0.5879,0.5885,0.5892,0.5902,0.5908,0.5916,0.5929,0.5939,0.5944,0.5954,0.5962,0.5961,0.5965,0.5965,0.5966,0.5943,0.594,0.5965,0.5965,0.5965,0.5965,0.5965,0.5965,0.5867,0.5879,0.588,0.5895,0.5899,0.591,0.5914,0.5921,0.5926,0.594,0.5949,0.5952,0.5958,0.597,0.598,0.5981,0.5986,0.599,0.5991,0.597,0.5967,0.5964,0.5962,0.5991,0.5991,0.6014,0.6014,0.6014]},{"header":{"parameterUnit":"m.s-1","parameterCategory":1,"la1":30.2991,"la2":30.254,"lo1":-89.0895,"lo2":-89.0444,"dy":0.0017,"dx":0.0017,"nx":28,"ny":28,"refTime":"2024-03-29T03:00:00:Z","depth":0,"parameterNumber":3,"parameterNumberName":"V-component_of_WINDS"},"data":[0,0,0,0,0,0,0,0,0,0,0,0,0,0,0,0,0,0,0,0,0,0,0,0,0,0,0,0,0,0,0,0,0,0,0,0,0,0,0,0,0,0,0,0,0,0,0,0,0,0,0,0,0,0,0,0,0,0,-1.5186,-1.5187,0,-1.5271,-1.5272,-1.5273,-1.5331,-1.5331,-1.5332,-1.5332,-1.5417,-1.5419,-1.5421,0,0,0,0,0,0,0,0,0,0,0,0,0,-1.5072,-1.5074,-1.5186,-1.5187,-1.5188,-1.5271,-1.5272,-1.5273,-1.5331,-1.5331,-1.5332,-1.5332,-1.5417,-1.5419,-1.5421,0,0,0,0,0,0,0,0,0,0,0,0,0,-1.5136,-1.5074,-1.5185,-1.5227,-1.5231,-1.527,-1.5272,-1.5273,-1.5331,-1.5331,-1.5332,-1.5332,-1.5416,-1.5419,-1.5421,-1.5426,0,0,-1.543,-1.5431,0,0,0,0,0,0,0,0,-1.5132,-1.514,-1.5219,-1.5224,-1.5229,-1.5291,-1.5263,-1.5324,-1.533,-1.5293,-1.5332,-1.5333,-1.5375,-1.5381,-1.5395,-1.543,-1.5433,-1.543,-1.5432,-1.5433,-1.5434,0,0,0,0,0,0,0,-1.5127,-1.5136,-1.5219,-1.5221,-1.5226,-1.524,-1.525,-1.5275,-1.5329,-1.5296,-1.53,-1.531,-1.5377,-1.5392,-1.5398,-1.5435,-1.543,-1.5433,-1.5434,-1.5435,-1.5477,-1.5477,0,0,0,0,0,0,-1.5117,-1.5132,-1.5217,-1.5222,-1.5181,-1.5242,-1.5253,-1.527,-1.5329,-1.5338,-1.5309,-1.5312,-1.5387,-1.5394,-1.5401,-1.541,-1.5433,-1.5436,-1.5437,-1.5478,-1.5477,-1.5477,0,0,0,0,0,0,-1.5114,-1.5124,-1.5213,-1.5178,-1.5191,-1.5243,-1.5262,-1.5272,-1.5287,-1.5339,-1.5349,-1.5315,-1.5388,-1.5397,-1.5419,-1.5413,-1.5437,-1.544,-1.5479,-1.5478,-1.5477,-1.5427,0,0,0,0,0,0,-1.5111,-1.5122,-1.5125,-1.5178,-1.5192,-1.523,-1.5262,-1.5273,-1.5292,-1.5296,-1.5347,-1.5356,-1.5389,-1.5415,-1.5422,-1.5418,-1.5442,-1.5479,-1.5478,-1.5477,-1.5429,-1.5424,-1.542,0,0,0,0,0,-1.5106,-1.5107,-1.5125,-1.5134,-1.5196,-1.523,-1.5238,-1.5277,-1.5291,-1.5294,-1.5327,-1.5354,-1.5413,-1.5417,-1.5425,-1.5422,-1.548,-1.5479,-1.5477,-1.5431,-1.5425,-1.542,0,0,0,0,0,0,-1.505,-1.5114,-1.5135,-1.5153,-1.5185,-1.5239,-1.5244,-1.527,-1.5299,-1.5302,-1.5349,-1.536,-1.5377,-1.5402,-1.5405,-1.5429,-1.545,-1.545,-1.5412,-1.5407,-1.5402,-1.5395,-1.5444,0,0,0,0,0,-1.504,-1.5062,-1.5117,-1.5127,-1.5143,-1.519,-1.5206,-1.5234,-1.527,-1.5283,-1.5319,-1.5352,-1.5378,-1.5394,-1.5421,-1.5434,-1.5445,-1.5436,-1.5431,-1.5427,-1.5426,-1.5435,-1.5431,-1.5473,-1.5473,-1.5473,0,0,-1.5019,-1.5057,-1.5068,-1.5117,-1.5146,-1.5167,-1.5202,-1.5223,-1.5239,-1.5287,-1.531,-1.5337,-1.5377,-1.5395,-1.5404,-1.5416,-1.5418,-1.5426,-1.5422,-1.5424,-1.5433,-1.5429,-1.5426,-1.5472,-1.5472,-1.5472,0,0,-1.4991,-1.5023,-1.5035,-1.5063,-1.5106,-1.5138,-1.5141,-1.5192,-1.5212,-1.5236,-1.5272,-1.5292,-1.5337,-1.5364,-1.5383,-1.5367,-1.5393,-1.5375,-1.535,-1.5358,-1.5355,-1.5352,-1.5345,-1.5342,-1.5374,-1.5374,-1.5374,0,-1.4959,-1.4993,-1.5037,-1.5056,-1.5077,-1.5123,-1.5135,-1.516,-1.5209,-1.5222,-1.5235,-1.5292,-1.5322,-1.5347,-1.5343,-1.5358,-1.5362,-1.5368,-1.5352,-1.535,-1.5348,-1.5342,-1.5339,-1.5372,-1.5372,-1.5372,-1.5372,0,-1.4951,-1.4974,-1.4979,-1.5026,-1.5048,-1.5063,-1.5109,-1.5125,-1.5152,-1.5182,-1.5206,-1.5245,-1.528,-1.5289,-1.5314,-1.5317,-1.5322,-1.5343,-1.5364,-1.534,-1.5336,-1.5334,-1.5368,-1.5369,-1.537,-1.537,0,0,-1.4888,-1.4961,-1.4962,-1.4984,-1.5036,-1.5054,-1.5072,-1.5108,-1.512,-1.5154,-1.5169,-1.5206,-1.5226,-1.5248,-1.5278,-1.5285,-1.5269,-1.5305,-1.5306,-1.5295,-1.5273,-1.5255,-1.5252,-1.5287,-1.5287,-1.5287,-1.5269,0,-1.4867,-1.4901,-1.4942,-1.4962,-1.4984,-1.5029,-1.5044,-1.5077,-1.5107,-1.5129,-1.5162,-1.5187,-1.5212,-1.5225,-1.5235,-1.5268,-1.5264,-1.5271,-1.5301,-1.5301,-1.5287,-1.525,-1.5232,-1.5213,-1.5268,-1.5267,-1.5267,0,-1.4846,-1.4877,-1.49,-1.4951,-1.4961,-1.4974,-1.501,-1.5032,-1.5071,-1.5092,-1.5117,-1.5149,-1.517,-1.5191,-1.522,-1.5223,-1.5238,-1.5257,-1.5257,-1.526,-1.5281,-1.525,-1.5208,-1.5204,-1.5265,-1.5265,-1.5265,0,-1.4795,-1.4844,-1.4864,-1.4881,-1.4941,-1.495,-1.4975,-1.5015,-1.5034,-1.5066,-1.5078,-1.5112,-1.513,-1.5155,-1.5195,-1.5207,-1.522,-1.5244,-1.5237,-1.5236,-1.5235,-1.5234,-1.5194,-1.5248,-1.5248,-1.5249,-1.5249,0,-1.4766,-1.4777,-1.4842,-1.4853,-1.4868,-1.4915,-1.4928,-1.4958,-1.4993,-1.5011,-1.5053,-1.5069,-1.5122,-1.5144,-1.5176,-1.5195,-1.5203,-1.522,-1.5228,-1.5215,-1.5213,-1.5224,-1.5225,-1.5248,-1.5248,-1.5248,-1.5248,0,-1.4711,-1.4755,-1.4779,-1.4834,-1.4849,-1.4857,-1.4904,-1.4917,-1.495,-1.4973,-1.4981,-1.5032,-1.506,-1.5104,-1.5145,-1.5167,-1.518,-1.5194,-1.5166,-1.5171,-1.516,-1.516,-1.5124,-1.5121,-1.5179,-1.5178,-1.5178,0,-1.4688,-1.4698,-1.4755,-1.477,-1.4795,-1.4819,-1.4839,-1.4887,-1.4906,-1.4952,-1.4959,-1.4991,-1.5019,-1.5063,-1.5103,-1.5135,-1.515,-1.5135,-1.5154,-1.5141,-1.5147,-1.5145,-1.5146,-1.5129,-1.5128,-1.5128,-1.5127,0,-1.4642,-1.4663,-1.4691,-1.4726,-1.4749,-1.4779,-1.4811,-1.4821,-1.4876,-1.4895,-1.4925,-1.4947,-1.499,-1.5021,-1.5059,-1.5085,-1.5114,-1.5121,-1.5121,-1.5107,-1.5089,-1.5097,-1.5151,-1.5121,-1.5122,-1.5122,-1.5122,-1.5123,-1.4601,-1.4612,-1.4654,-1.4683,-1.4713,-1.4742,-1.4757,-1.4792,-1.4818,-1.4857,-1.4885,-1.4913,-1.4953,-1.5007,-1.5032,-1.5055,-1.5067,-1.5067,-1.5067,-1.5066,-1.506,-1.5088,-1.5062,-1.5062,-1.5062,-1.5063,-1.5063,0,-1.4555,-1.4585,-1.4612,-1.4656,-1.4679,-1.4707,-1.4744,-1.4761,-1.4786,-1.4821,-1.4848,-1.4883,-1.4914,-1.4958,-1.4992,-1.5002,-1.5016,-1.5009,-1.5007,-1.5012,-1.5048,-1.5044,-1.4996,-1.4996,-1.4996,-1.4996,-1.4996,-1.4996,-1.4534,-1.4554,-1.4581,-1.4616,-1.4646,-1.4675,-1.4693,-1.472,-1.4749,-1.4786,-1.4812,-1.4841,-1.488,-1.4917,-1.4947,-1.4959,-1.4969,-1.4957,-1.4973,-1.5004,-1.501,-1.5016,-1.5012,-1.4959,-1.4959,-1.4936,-1.4935,-1.4935]}]]